INMARSAT 3-F5
1 25153U 98006B   02365.01026622  .00000147  00000-0  10000-3 0  8269
2 25153   0.4520 357.5009 0003812 306.4439 183.9650  1.00269000 18000
HOT BIRD 4
1 25237U 98013A   02364.09542247  .00000095  00000-0  10000-3 0  3237
2 25237   0.0611 171.7992 0008910  46.8775 287.0610  1.00272623 18039
NOAA 15
1 25338U 98030A   03001.96666520 +.00000286 +00000-0 +14227-3 0 09596
2 25338 098.5517 025.4050 0011393 094.7019 265.5461 14.24222050241021
RESURS O1-N4
1 25394U 98043A   03001.92188163 +.00000314 +00000-0 +15607-3 0 04387
2 25394 098.6381 080.7128 0000682 222.0484 138.0636 14.23860040232758
TMSAT
1 25396U 98043C   03001.95020273 -.00000043 +00000-0 +00000-0 0 08987
2 25396 098.6334 079.9688 0001674 267.6697 092.4292 14.23494565232758
TECHSAT 1B
1 25397U 98043D   03001.95357640 +.00000132 +00000-0 +77942-4 0 01354
2 25397 098.6290 078.9174 0000425 319.6936 040.4210 14.22947896232725
ASTRA 2A
1 25462U 98050A   02364.00000000  .00000158  00000-0  00000+0 0  5276
2 25462   0.0385 308.7109 0004824 280.8620 256.9180  1.00272094 15933
EUTELSAT W2
1 25491U 98056A   02363.84192703  .00000113  00000-0  00000+0 0  5537
2 25491   0.0095 262.7021 0003587   9.8783 144.6232  1.00273532 15545
HOT BIRD 5
1 25495U 98057A   02363.91271007  .00000164  00000-0  00000+0 0  4866
2 25495   0.0427 155.6456 0003909 128.1244 176.0723  1.00268942 15515
SEDSAT 1
1 25509U 98061B   03001.60286604 +.00001583 +00000-0 +30438-3 0 07470
2 25509 031.4322 064.0324 0358294 244.0691 112.2593 14.27335794218452
PAN SAT
1 25520U 98064B   03001.69430911 +.00002696 +00000-0 +13589-3 0 06245
2 25520 028.4647 182.6873 0005850 197.6350 162.3721 15.13619633230321
ISS (ZARYA)
1 25544U 98067A   03001.84840740 +.00037865 +00000-0 +49230-3 0 05355
2 25544 051.6352 135.7682 0004552 349.5526 147.8977 15.58394430235090
ORSTED
1 25635U 99008B   03001.94952352 +.00000722 +00000-0 +18982-3 0 08047
2 25635 096.4462 359.5973 0146391 119.7876 241.7945 14.44754257203064
SUNSAT
1 25636U 99008C   03001.93845697 +.00000330 +00000-0 +93854-4 0 06731
2 25636 096.4494 358.3444 0150260 125.8313 235.6950 14.42910459202944
UOSAT 12
1 25693U 99021A   03001.93048509 +.00000438 +00000-0 +82653-4 0 05751
2 25693 064.5578 156.5863 0016190 317.5216 042.4623 14.76328777199224
FENGYUN 1C
1 25730U 99025A   03001.95443176 +.00000163 +00000-0 +11253-3 0 07516
2 25730 098.6374 028.1384 0015188 136.2105 224.0273 14.11729563187918
ASTRA 1H
1 25785U 99033A   02364.00000000  .00000128  00000-0  10000-3 0  3670
2 25785   0.0122 319.8851 0002995  65.1991  92.3410  1.00273184 12991
TERRA
1 25994U 99068A   03001.79346847 +.00000401 +00000-0 +98843-4 0 05574
2 25994 098.2071 078.7367 0000694 093.9908 266.1380 14.57154021161715
JAWSAT
1 26061U 00004A   02365.24066314  .00001012  00000-0  35327-3 0  7299
2 26061 100.2134  48.1390 0035596  59.6794 300.7896 14.37766203153440
OPAL
1 26063U 00004C   03001.67046856 +.00000218 +00000-0 +95695-4 0 06904
2 26063 100.2187 047.5429 0037421 061.3660 299.1271 14.35460096153523
ASUSAT
1 26065U 00004E   02365.23421649  .00000364  00000-0  14591-3 0  6971
2 26065 100.2176  45.9833 0037844  67.2794 293.2379 14.35485741153300
GOES 11
1 26352U 00022A   03001.30881557 -.00000039 +00000-0 +10000-3 0 09552
2 26352 000.0354 133.9689 0004591 138.8129 187.0809 01.00259889009758
EUTELSAT W4
1 26369U 00028A   02365.18646413 +.00000161 +00000-0 +00000-0 0 03335
2 26369 000.0259 353.0035 0011446 318.6583 250.9239 01.00274665009553
FENGYUN 2B
1 26382U 00032A   03001.90659179 -.00000327 +00000-0 +00000-0 0 07616
2 26382 000.6868 286.6482 0000426 204.2313 041.2136 01.00272208009237
EUTELSAT W1
1 26487U 00052A   02365.14877895  .00000074  00000-0  10000-3 0  3347
2 26487   0.0277 118.3689 0003899 159.0833 245.4310  1.00270091  8523
ASTRA 2B
1 26494U 00054A   02364.00000000  .00000158  00000-0  00000+0 0  2502
2 26494   0.0178 354.5658 0005000 302.8402 189.0339  1.00276704  8416
NOAA 16
1 26536U 00055A   03001.95966928 +.00000218 +00000-0 +14359-3 0 01493
2 26536 098.8958 310.6112 0011418 082.0248 278.2208 14.11875225117435
SAUDISAT 1A
1 26545U 00057A   03001.80536377 +.00001038 +00000-0 +15668-3 0 03925
2 26545 064.5566 178.7069 0055060 246.1414 113.3886 14.78825475122154
UNISAT
1 26547U 00057C   03001.81501062 +.00001811 +00000-0 +25317-3 0 04158
2 26547 064.5560 181.0874 0062074 248.7262 110.7138 14.79493574122123
TIUNGSAT 1
1 26548U 00057D   03001.56347027 +.00001404 +00000-0 +19558-3 0 03977
2 26548 064.5555 172.8690 0048446 244.6271 114.9794 14.81071780122267
SAUDISAT 1B
1 26549U 00057E   03001.94254358 +.00001131 +00000-0 +17260-3 0 06578
2 26549 064.5527 182.1567 0059243 246.9080 112.5766 14.77771115122104
AMSAT OSCAR 40
1 26609U 00072B   02363.51138608  .00000004  00000-0  10000-3 0  2999
2 26609   7.8703  73.6119 7931814 127.4932 332.8254  1.25597485  9943
GOES 12
1 26871U 01031A   03001.44474885 -.00000084 +00000-0 +10000-3 0 07509
2 26871 000.4305 098.5383 0001053 059.1542 358.0255 01.00261102005353
STARSHINE 3
1 26929U 01043A   03001.95425659 +.00284763 +38574-4 +61804-3 0 06311
2 26929 067.0257 123.4252 0005713 321.1008 038.9716 15.98108440071245
PCSAT
1 26931U 01043C   03001.93547530 +.00000287 +00000-0 +14568-3 0 03672
2 26931 067.0490 018.2399 0005471 255.2628 104.7866 14.29085946065548
SAPPHIRE
1 26932U 01043D   03001.98957910 +.00000194 +00000-0 +10859-3 0 04111
2 26932 067.0566 017.8178 0006740 239.5037 120.5399 14.29273562065575
ENVISAT
1 27386U 02009A   03001.90037334 +.00000271 +00000-0 +11680-3 0 08066
2 27386 098.5510 071.1356 0000973 098.1395 261.9896 14.32248860043920
IDEFIX/ARIANE 42P
1 27422U 02021B   03001.95480959 +.00000341 +00000-0 +15551-3 0 02255
2 27422 098.7034 081.3597 0011753 290.0078 069.9835 14.27942292034667
NOAA 17
1 27453U 02032A   03001.97253428 +.00000371 +00000-0 +18327-3 0 02552
2 27453 098.7637 073.4166 0012372 131.9143 228.3092 14.23262562027195
HOT BIRD 6
1 27499U 02038A   02364.09542247  .00000095  00000-0  10000-3 0   643
2 27499   0.0040   8.7196 0011180 225.2390 271.8102  1.00272778  1323
RUBIN-2
1 27605U 02058A   03001.93487314 +.00000944 +00000-0 +17262-3 0 00201
2 27605 064.5589 341.8815 0031693 131.2492 229.1313 14.71352613001806
